Flag for Philippines Weather past 2 weeks in Olongapo, Philippines

Now
86 °F

Scattered showers. Partly sunny.


Feels Like: 95 °F
Forecast: 76 / 89 °F
Wind: 9 mph from Southwest

Location: Subic Bay Weather Station

Current Time: Sep 1, 2015 at 2:24:35 PM

Latest Report: Sep 1, 2015 at 2:00 PM


Visibility: N/A

Pressure: 29.77 "Hg

Humidity: 70%

Dew point: 75 °F

Location of OlongapoLocation

Historic Weather in Olongapo — Graph

°F

Olongapo temperature yesterday

Maximum temperature yesterday: 88 °F (at 1:00 PM)
Minimum temperature yesterday: 73 °F (at 1:00 AM)
Average temperature yesterday: 81 °F

Past Weeks' High & Low Weather Summary

 TemperatureHumidityPressure
High91 °F (Aug 19, 12:00 PM)94% (Aug 19, 5:00 AM)29.92 "Hg (Aug 19, 5:00 AM)
Low73 °F (Aug 24, 3:00 AM)56% (Aug 19, 12:00 PM)29.53 "Hg (Aug 21, 3:00 PM)
Average81 °F80%29.76 "Hg
* Reported Aug 17 1:00 PM — Sep 1 1:00 PM, Olongapo, Weather by CustomWeather, © 2015

Note: Actual official high and low records may vary slightly from our data, if they occured in-between our weather recording intervals... More about our weather records

Advertising

Olongapo weather history for previous 24 hours

 ConditionsComfort  
Time TempWeatherWind HumidityBarometerVisibility
1:00 PM
Tue, Sep 1
88 °FBroken clouds.10 mph66%29.80 "HgN/A
11:00 AM88 °FBroken clouds.5 mph62%29.83 "HgN/A
10:00 AM86 °FPartly sunny.2 mph66%29.83 "HgN/A
9:00 AM84 °FPartly sunny.1 mph74%29.83 "HgN/A
8:00 AM82 °FPartly sunny.No wind79%29.83 "HgN/A
7:00 AM79 °FPartly sunny.2 mph89%29.80 "HgN/A
5:00 AM77 °FPassing clouds.2 mph89%29.80 "HgN/A
4:00 AM77 °FPassing clouds.No wind89%29.80 "HgN/A
3:00 AM77 °FPassing clouds.2 mph89%29.83 "HgN/A
2:00 AM77 °FPassing clouds.2 mph89%29.83 "HgN/A
1:00 AM79 °FPassing clouds.5 mph84%29.83 "HgN/A
12:00 AM79 °FPassing clouds.No wind89%29.86 "HgN/A
11:00 PM
Mon, Aug 31
81 °FPassing clouds.No wind84%29.86 "HgN/A
10:00 PM82 °FPassing clouds.No wind79%29.86 "HgN/A
9:00 PM82 °FPassing clouds.No wind79%29.83 "HgN/A
8:00 PM84 °FPassing clouds.3 mph74%29.83 "HgN/A
7:00 PM84 °FPassing clouds.1 mph74%29.80 "HgN/A
6:00 PM86 °FPartly sunny.7 mph62%29.80 "HgN/A
5:00 PM86 °FPartly sunny.2 mph70%29.77 "HgN/A
4:00 PM86 °FBroken clouds.6 mph70%29.77 "HgN/A
3:00 PM86 °FBroken clouds.12 mph70%29.80 "HgN/A
2:00 PM88 °FPartly sunny.12 mph66%29.80 "HgN/A
Weather by CustomWeather, © 2015

See weather overviewHow to use our weather pages